Regional Weather Roundup
Issued by NWS Cleveland, OH

Home | Current Version | Previous Version | Graphics & Text | Print | Product List | Glossary On
Versions: 1 2 3 4 5 6 7 8 9 10 11 12 13 14 15 16 17 18 19 20 21 22 23 24 25 26 27 28 29 30 31 32 33 34 35 36 37 38 39 40 41 42 43 44 45 46 47 48 49 50
000
ASUS41 KCLE 070510
RWRCLE
OHIO REGIONAL WEATHER ROUNDUP
NATIONAL WEATHER SERVICE CLEVELAND, OH
100 AM EDT TUE JUL 07 2015

NOTE: "FAIR" INDICATES FEW OR NO CLOUDS BELOW 12,000 FEET WITH NO
SIGNIFICANT WEATHER AND/OR OBSTRUCTIONS TO VISIBILITY.

OHZ001>008-015>018-024>027-034-035-043-044-070600-
   NORTHWEST OHIO

CITY           SKY/WX    TMP DP  RH WIND       PRES   REMARKS
DEFIANCE       CLOUDY    76  67  73 S8        29.93F
FINDLAY        MOCLDY    71  65  81 S10       29.95F
TOLEDO EXPRESS CLOUDY    72  65  78 S6        29.93F
TOLEDO EXEC    CLOUDY    74  63  68 S9        29.94F
LIMA           CLOUDY    72  66  81 S7        29.97F
$$

OHZ009>014-019>023-028>033-038-089-070600-
   NORTHEAST OHIO

CITY           SKY/WX    TMP DP  RH WIND       PRES   REMARKS
CLE-HOPKINS    MOCLDY    72  63  73 S8        30.00S
CLE-LAKEFRONT  CLEAR     74  68  81 S6        29.96F
CUY CO. ARPT   NOT AVBL
LORAIN-ELYRIA  CLEAR     68  61  78 SW8       29.98F
ASHTABULA      CLEAR     67  65  93 S3        29.99S
AKRON-CANTON   CLOUDY    72  67  84 SW6       30.02S
WOOSTER        CLEAR     67  63  87 SW5       30.02S
MANSFIELD      CLEAR     67  61  81 S9        30.01F
YOUNGSTOWN     PTCLDY    69  67  93 S6        30.01S
$$

OHZ042-051>053-060>062-070>072-077>081-070600-
  SOUTHWEST OHIO

CITY           SKY/WX    TMP DP  RH WIND       PRES   REMARKS
CINC-COVINGTON MOCLDY    72  68  87 S6        30.01F
CINC-LUNKEN    MOCLDY    73  69  87 SW6       30.00F
HAMILTON       MOCLDY    77  70  79 VRB3      30.00F
DAYTON         MOCLDY    75  67  76 S7        30.00F HAZE
WRIGHT-PAT AFB MOCLDY    73  67  83 S7        29.99F
DAYTON GENERAL MOCLDY    71  67  87 S6        30.00F
WILMINGTON     PTCLDY    71  66  84 S7        30.02F HAZE
$$

OHZ036-037-039>041-045>050-054>059-063>069-073>076-082>088-070600-
  CENTRAL AND SOUTHEAST OHIO

CITY           SKY/WX    TMP DP  RH WIND       PRES   REMARKS
COLUMBUS       PTCLDY    71  62  73 SE5       30.01F
OSU AIRPORT    CLEAR     72  63  73 S7        30.00F
BOLTON FIELD   PTCLDY    67  65  91 S5        30.01F
RICKENBACK AFB CLEAR     68  62  82 S3        30.01F
NEWARK         CLEAR     63  61  93 CALM      30.02F
MARION         CLEAR     68  62  81 S7        30.00F
LANCASTER      CLEAR     65  62  90 CALM      30.02F
ZANESVILLE     NOT AVBL
NEW PHILLY     MOCLDY    70  68  93 CALM      30.03R
$$


USA.gov is the U.S. government's official web portal to all federal, state and local government web resources and services.